User: anonymous   Login
Location: Carr Mill
(33.2054°N, 85.9439°W)
Time: 15:14:35
(UTC+00:00)
Language:

ISS - Orbit

View from above orbital plane
View from above orbital plane
View from above satellite
View from above satellite

Ground track
Ground track

The orbit data is extracted from the following two-line orbital elements,

1 25544U 98067A   21214.50743859 -.00000371  00000-0  13851-5 0  9996
2 25544  51.6440 113.6667 0001196 235.5888 294.1457 15.48861213295779
Epoch (UTC): 02 August 2021 12:10:42
Eccentricity: 0.0001196
inclination: 51.6440°
perigee height: 419 km
apogee height: 421 km
right ascension of ascending node: 113.6667°
argument of perigee: 235.5888°
revolutions per day: 15.48861213
mean anomaly at epoch: 294.1457°
orbit number at epoch: 29577

The dashed part of the orbit path shows where the satellite is in the earth's shadow,  

DLR